Regional Weather Roundup
Issued by NWS

Home | Current Version | Previous Version | Graphics & Text | Print | Product List | Glossary On
Versions: 1 2 3 4 5 6 7 8 9 10 11 12 13 14 15 16 17 18 19 20 21 22 23 24 25 26 27 28 29 30 31 32 33 34 35 36 37 38 39 40 41 42 43 44 45 46 47 48 49 50
000
ASUS43 KLMK 252302
RWRKY
KENTUCKY REGIONAL WEATHER ROUNDUP
NATIONAL WEATHER SERVICE LOUISVILLE KY
700 PM EDT MON MAY 25 2015

NOTE "FAIR" INDICATES FEW OR NO CLOUDS BELOW 12,000 FEET
WITH NO SIGNIFICANT WEATHER AND/OR OBSTRUCTIONS TO VISIBILITY.

KYZ001>023-026-027-061>063-070>075-260000-
WESTERN AND SOUTH CENTRAL KENTUCKY

CITY           SKY/WX    TMP DP  RH WIND       PRES   REMARKS
PADUCAH        CLOUDY    75  68  78 SE8       30.02F
HENDERSON      CLOUDY    72  64  78 S12       30.04F
OWENSBORO      CLOUDY    73  68  84 S12       30.07F
HOPKINSVILLE   CLOUDY    73  68  84 S6        30.09S
BOWLING GREEN  CLOUDY    74  67  78 S10       30.12R
GLASGOW        NOT AVBL
$$

KYZ024-025-028>034-038-045-046-053-260000-
NORTH CENTRAL KENTUCKY

CITY           SKY/WX    TMP DP  RH WIND       PRES   REMARKS
LOUISVILLE/SDF CLOUDY    73  66  78 S9        30.09F
LOUISVILLE/LOU CLOUDY    72  66  81 S7        30.10F
FORT KNOX      CLOUDY    72  66  83 SE13      30.09F
$$

KYZ035>037-039>044-047>052-055>060-089>105-260000-
NORTHEAST KENTUCKY

CITY           SKY/WX    TMP DP  RH WIND       PRES   REMARKS
LEXINGTON      CLOUDY    74  65  73 CALM      30.13F
COVINGTON      CLOUDY    73  64  73 S10       30.11F
FRANKFORT      CLOUDY    73  64  73 SE5       30.11F
$$

KYZ054-064>069-076>088-106>120-260000-
SOUTHEAST KENTUCKY

CITY           SKY/WX    TMP DP  RH WIND       PRES   REMARKS
JACKSON        PTSUNNY   80  62  54 CALM      30.17F
LONDON         PTSUNNY   81  58  45 S9        30.16S
SOMERSET       NOT AVBL
MIDDLESBORO    MOSUNNY   82  62  51 S3        30.18S
MONTICELLO     CLOUDY    73  66  78 S6        30.19R
$$




USA.gov is the U.S. government's official web portal to all federal, state and local government web resources and services.